www.pogodaiklimat.ru

Погода и климат >> Архив погоды >> Россия >> город Санкт-Петербург >> Санкт-Петербург


АРХИВ ПОГОДЫ в Санкт-Петербурге

Время (UTC), дата Ветер
(напр.,м/с)
 
Видим.   Явления Облачность Т
(С)
Тd
(С)
f
(%)
Тe
(С)
Тes
(С)
Комфортность P
(гПа)
Po
(гПа)
Тmin
(С)
Tmax
(С)
R
(мм)
S
(см)
18 20.03 ЮВ 1 10 км {ливн. осадки} 8/3 600 м
[Sc diur, vesp Ac trans]
+5.0 -1.3 64 +4 +4 тепло 1006.5 1005.8 +7.5 0.1
21 20.03 Ю 1 10 км 8/3 600 м
[Sc diur, vesp Ac trans Ci fib]
+4.0 -1.7 66 +3 +3 тепло 1006.4 1005.6
00 21.03 В 2 10 км 10/10 600 м
[Sc]
+3.4 -1.7 69 +1 +1 тепло 1006.3 1005.5
03 21.03 В 1 10 км 4/0
[Ac trans Ci fib]
+1.9 -2.9 70 +1 +1 тепло 1005.8 1005.0 +0.7 0.0
06 21.03 ЮВ 3 10 км ясно +1.9 -3.4 68 -2 -1 по сезону 1005.7 1004.9 +1.2
09 21.03 В 3
{10}
10 км 3/0
[Ci fib]
+6.9 -5.6 41 +5 +9 тепло 1004.1 1003.3
12 21.03 ЮВ 3-10
{13}
10 км 9/3 600 м
[Sc As op Cs]
+8.1 -6.0 36 +6 +8 тепло 1002.6 1001.9
15 21.03 ЮВ 3
{11}
10 км 10/10 300 м
[Sc Ac As]
+6.7 -1.8 55 +4 +4 тепло 1001.3 1000.5
18 21.03 Ю 3 10 км слабый дождь {ливн. осадки} 10/10 300 м
[Sc]
+4.2 +1.9 85 +1 +1 по сезону 1001.4 1000.6 +8.3 0.4
21 21.03 ЮЗ 2 10 км {дождь} 3/0
[Ac As]
+3.7 +1.5 86 +1 +1 по сезону 1003.3 1002.6
00 22.03 Ю 3 10 км {дождь} ясно +3.8 +0.7 80 0 0 по сезону 1004.7 1004.0
03 22.03 Ю 4 10 км ясно +3.1 +1.0 86 -2 -2 по сезону 1004.6 1003.8 +3.0 0.4
06 22.03 Ю 3 10 км 10/10 480 м
[Sc]
+3.7 +0.9 82 -0 -0 по сезону 1005.2 1004.4 +2.9
09 22.03 ЮЗ 4
{10}
10 км 10/10 630 м
[Sc]
+4.6 +0.4 74 +1 +1 по сезону 1006.4 1005.6
12 22.03 ЮЗ 3 10 км 9/9 1170 м
[Sc]
+6.1 -1.8 57 +3 +4 по сезону 1006.8 1006.0
15 22.03 ЮЗ 4 10 км {дождь} 9/9 600 м
[Sc]
+5.9 -2.4 55 +3 +3 по сезону 1007.7 1006.9
18 22.03 ЮЗ 4 10 км в посл. час дождь 9/9 600 м
[Sc]
+4.5 -0.4 70 +1 +1 по сезону 1009.1 1008.4 +6.3
21 22.03 ЮЗ 5 10 км 9/9 600 м
[Sc]
+4.0 -0.4 73 -1 -1 по сезону 1010.0 1009.2
00 23.03 ЮЗ 4 10 км {дождь} 8/4 600 м
[Sc Ac trans]
+3.2 +0.5 82 -1 -1 по сезону 1011.0 1010.2
03 23.03 ЮЗ 4 10 км 9/9
[Sc]
+2.8 +0.1 82 -2 -2 по сезону 1011.9 1011.1 +2.8 0.0
06 23.03 ЮЗ 3 10 км 10/10 400 м
[Sc]
+2.6 +0.1 84 -2 -2 по сезону 1013.3 1012.5 +2.4
09 23.03 З 3 10 км 10/10 400 м
[Sc]
+3.1 +0.3 82 -1 -1 по сезону 1014.7 1014.0
12 23.03 З 5-13
{13}
10 км {ливн. осадки} ясно +4.8 -2.5 59 +1 +3 по сезону 1016.2 1015.5
15 23.03 З 3
{13}
10 км ясно +3.2 -2.2 68 -0 0 по сезону 1017.6 1016.8 0.0
18 23.03 З 3 10 км ясно +2.2 -4.5 61 -2 -2 по сезону 1018.1 1017.3 +4.9
21 23.03 ЮЗ 3 10 км ясно +1.4 -7.2 53 -2 -2 по сезону 1017.2 1016.5
00 24.03 З 2 10 км ясно +0.5 -3.1 77 -3 -3 по сезону 1016.7 1015.9
03 24.03 З 2 10 км ясно -0.9 -2.8 87 -5 -5 по сезону 1016.5 1015.7 -0.9
06 24.03 З 3 10 км ясно -0.1 -4.0 75 -5 -3 по сезону 1016.8 1016.0 -0.9
09 24.03 З 3 10 км ясно +1.1 -3.3 72 -3 +2 по сезону 1017.1 1016.3
12 24.03 З 4
{11}
10 км 3/1 600 м
[Cu hum Ci fib]
+1.5 -4.3 65 -3 -0 прохладно 1017.7 1017.0
15 24.03 З 5-10
{12}
10 км ясно +1.1 -5.0 64 -4 -4 прохладно 1017.6 1016.9
18 24.03 З 2
{10}
10 км ясно +0.4 -5.6 64 -3 -3 по сезону 1018.1 1017.3 +1.7
21 24.03 З 1 10 км ясно -1.1 -4.6 77 -3 -3 по сезону 1018.2 1017.4
00 25.03 З 1 10 км ясно -2.0 -5.9 75 -4 -4 по сезону 1017.8 1017.0
03 25.03 З 2 10 км 10/10 120 м
[St]
-1.5 -2.6 92 -5 -5 по сезону 1016.7 1015.9 -2.6
06 25.03 ЮЗ 2 10 км 10/10 360 м
[Sc]
-1.3 -2.9 89 -5 -5 по сезону 1015.4 1014.7 -2.6
09 25.03 ЮЗ 2 10 км 9/8 400 м
[Sc Ac As]
+0.6 -2.8 78 -3 -2 по сезону 1014.7 1013.9
12 25.03 ЮЗ 1 4000 м слабый ливневой снег 10/10 300 м
[Cb calv]
+1.3 -0.7 87 -1 -1 по сезону 1014.1 1013.3
15 25.03 З 1 10 км {ливн. осадки} 9/9 450 м
[Sc]
+1.8 -0.9 82 0 0 по сезону 1014.2 1013.4 0.5
18 25.03 С 2 10 км {ливн. осадки} 10/10 500 м
[Sc]
+1.0 -0.8 88 -3 -3 по сезону 1015.5 1014.7 +2.0 0.5
21 25.03 СЗ 2 10 км 10/10 330 м
[Sc]
+0.9 -0.5 90 -3 -3 по сезону 1016.6 1015.9
00 26.03 З 1 10 км 10/10 360 м
[Sc]
+0.7 -0.4 92 -1 -1 по сезону 1017.0 1016.2
03 26.03 З 2 10 км 10/10 270 м
[Sc]
+0.3 -0.4 95 -3 -3 по сезону 1016.8 1016.0 +0.2
06 26.03 ЮЗ 2 10 км 9/9 300 м
[Sc]
+1.5 -0.5 87 -2 -2 по сезону 1015.8 1015.0 +0.2
09 26.03 ЮЗ 4 10 км 10/0
[Ac As]
+2.7 -1.3 75 -2 -1 по сезону 1011.8 1011.1
12 26.03 ЮЗ 5-10
{10}
2000 м дождь со снегом 10/10 300 м
[St]
+2.1 +0.7 90 -4 -4 холодно 1005.5 1004.8
15 26.03 З 3
{11}
2000 м морось {снег, дождь} 10/10 300 м
[St]
+2.7 +1.2 90 -1 -1 по сезону 1000.0 999.3 1
18 26.03 З 4
{11}
10 км в посл. час ливневой дождь {снег} 9/9 300 м
[Sc Ac As]
+2.8 +1.1 89 -2 -2 по сезону 996.8 996.0 +3.2 3
21 26.03 СЗ 4
{12}
10 км {дождь} ясно +3.8 -1.7 67 -0 -0 по сезону 998.7 997.9
00 27.03 СЗ 3
{10}
10 км {дождь} ясно +3.3 -4.1 58 -0 -0 по сезону 1000.4 999.6
03 27.03 СЗ 4-11
{11}
10 км ясно +2.6 -4.8 58 -2 -2 по сезону 1001.9 1001.2 +2.2 1
06 27.03 С 4
{11}
10 км 8/8 600 м
[Sc]
+2.8 -5.3 55 -1 -1 по сезону 1004.0 1003.2 +2.2
09 27.03 З 4
{12}
10 км 5/0
[Ac trans Ci fib]
+3.0 -2.3 68 -1 +2 по сезону 1005.0 1004.3
12 27.03 З 3
{12}
10 км 10/10 600 м
[Sc]
+2.7 -3.0 66 -1 -1 по сезону 1003.8 1003.0

 

Местоположение метеостанции Санкт-Петербург (город Санкт-Петербург, Россия): широта 59.97 долгота 30.30 высота над уровнем моря 6 м.

В архиве по умолчанию представлена погода в Санкт-Петербурге за последнюю неделю. Архивные данные за месяц целиком и за предыдущие месяцы, начиная с января 2011 года, Вы можете получить, выбрав интересующий диапазон дат из раскрывающегося списка и нажав кнопку "Ввод!".

Внимание! Время в таблицах - всемирное. Для получения местного времени необходимо прибавить поправку, которая в Санкт-Петербурге равна 3 ч.

Смотрите также архив погоды в соседних городах и на ближайших метеорологических станциях:

Погода в Воейково (город Санкт-Петербург, Россия) (22 км)
Погода в Ломоносове (город Санкт-Петербург, Россия) (29 км)
Погода в Кронштадте (город Санкт-Петербург, Россия) (30 км)
Погода в Шлиссельбурге (Ленинградская область, Россия) (39 км)
Погода в Рощино (Ленинградская область, Россия) (48 км)
Погода в Шепелево (Ленинградская область, Россия) (58 км)
Погода в Сосново (Ленинградская область, Россия) (65 км)
Погода в Белогорке (Ленинградская область, Россия) (70 км)
Погода в Волосово (Ленинградская область, Россия) (75 км)
Погода в Озерках (Ленинградская область, Россия) (77 км)

Пояснения к столбцам:

Ветер - указаны скорость ветра в м/с - средняя за 10 мин, порывы в срок и между сроками (в фигурных скобках) и направление, откуда дует ветер: С - северный, СВ - северо-восточный, В - восточный, ЮВ - юго-восточный, Ю - южный, ЮЗ - юго-западный, З - западный, СЗ - северо-западный.
Видимость - горизонтальная дальность видимости в метрах или километрах. При видимости от 1 до 10 км при отсутствии осадков обычно наблюдается дымка, при ухудшении видимости до 1 км и менее - туман. В сухую погоду видимость может ухудшаться дымом, пылью или мглою.
Явления - указаны атмосферные явления, наблюдавшиеся в срок или в последний час перед сроком; фигурными скобками обозначены явления, наблюдавшиеся между сроками (за 1-3 часа до срока); квадратными скобками обозначены град или гололедные отложения с указанием их диаметра в мм.
Облачность - указаны через наклонную черту общая и нижняя облачность в баллах и высота нижней границы облаков в метрах; квадратными скобками обозначены формы облаков: Ci - перистые, Cs - перисто-слоистые, Cc - перисто-кучевые, Ac - высококучевые, As - высокослоистые, Sc - слоисто-кучевые, Ns - слоисто-дождевые, Cu - кучевые, Cb - кучево-дождевые. Подробнее классификацию облаков см. в Атласе облаков (PDF).
T - Температура воздуха - температура, измеренная на высоте 2 м над землей.
Td - Температура точки росы - температура, при понижении до которой содержащийся в воздухе водяной пар достигнет насыщения.
f - Относительная влажность воздуха - влажноcть воздуха, измеренная на высоте 2 м над землей.
Te - Эффективная температура - температура, которую ощущает одетый по сезону человек в тени. Характеристика душности погоды. При расчете учитывается влияние влажности воздуха и скорости ветра на теплоощущения человека.
Tes - Эффективная температура на солнце - температура, которую ощущает человек, с поправкой на солнечный нагрев. Характеристика знойности погоды. Зависит от высоты солнца над горизонтом, облачности и скорости ветра. Ночью, в пасмурную погоду, а также при ветре 12 м/с и более поправка равна нулю.
P - Атмосферное давление - приведенное к уровню моря атмосферное давление.
Po - Атмосферное давление - измеренное на уровне метеостанции атмосферное давление.
Tmin - Минимальная температура - минимум температуры воздуха на высоте 2 м над землей.
Tmax - Максимальная температура - максимум температуры воздуха на высоте 2 м над землей.
R - Количество осадков - Количество выпавших осадков, мм. При наведении курсора мыши на число - период времени, за который выпало указанное количество осадков.
S - Снежный покров - Высота снежного покрова, см. При наведении курсора мыши на число - состояние снежного покрова и степень покрытия местности в баллах.